Find Starlink 11611

NORAD ID: 63138 Int'l Des: 2025-043 Owner: SPXS Country: US Constellation: starlink operational
別名: STARLINK-11611 [DTC] celestrak
LEOCIRCULAR

現在のビュー

3D地球を読み込み中...

About Starlink 11611

Starlink 11611 (NORAD 63138) is a starlink constellation satellite (v2 mini d2c) launched Mar 3, 2025 by SPXS of US. It operates in LEO, CIRCULAR orbit with a mass of 960.00 kg.

次回通過

Passes for default location (London). Set your location on the main map for personalized predictions.

高度履歴

Loading altitude history...

軌道要素

1 63138U 25043G 26258.16897433 .00181669 00000-0 13860-2 0 9990
2 63138 43.0019 188.4768 0002201 270.9379 89.1237 15.70883843 89277
Epoch: Sep 15, 2026 • Age: 17 hours

現在のステータス

高度 356.8 km
遠地点 / 近地点 N/A
速度 7.70 km/s
衛星直下点 27.93°N, 91.53°W
打ち上げ日 Mar 3, 2025
運用期間 1.5 years
タイプ internet

技術仕様

分類 Payload
質量 960.00 kg
乾燥質量 910.00 kg
長さ 0.30 m
スパン 29.00 m
形状 ? Box + pan
製造者 SPXS
バスタイプ Starlink V2MD
フェーズステータス In Orbit
所有者/国 SPXS/US

Most Searched